Regional Weather Roundup
Issued by NWS Mt. Holly, NJ

Home | Current Version | Previous Version | Text Only | Print | Product List | Glossary On
Versions: 1 2 3 4 5 6 7 8 9 10 11 12 13 14 15 16 17 18 19 20 21 22 23 24 25 26 27 28 29 30 31 32 33 34 35 36 37 38 39 40 41 42 43 44 45 46 47 48 49 50
000
ASUS41 KPHI 300011
RWRPHI

REGIONAL WEATHER ROUNDUP
NATIONAL WEATHER SERVICE MOUNT HOLLY NJ
800 PM EDT FRI MAY 29 2015

NOTE:  "FAIR" INDICATES FEW OR NO CLOUDS BELOW 12,000 FEET WITH NO
SIGNIFICANT WEATHER AND/OR OBSTRUCTIONS TO VISIBILITY.

 * = STATION DOES NOT REPORT PRECIPITATION (E.G. RAIN, SNOW, ETC.)
        OR FOG.

NJZ015>026-300100-
SOUTHERN NEW JERSEY

CITY           SKY/WX    TMP DP  RH WIND       PRES   REMARKS
POMONA         PTCLDY    70  62  76 S7        30.23S
6HR MIN TEMP:  70; 6HR MAX TEMP:  79;

RIO GRANDE*    PTCLDY    70  61  73 SE9       30.24S
MILLVILLE      PTCLDY    73  64  73 VRB5      30.23R
WRIGHTSTOWN    MOCLDY    73  60  64 SE7       30.20R
MOUNT HOLLY    PTCLDY    74  61  63 SE5       30.21R
TRENTON        PTCLDY    76  59  55 SE9       30.20R
6HR MIN TEMP:  76; 6HR MAX TEMP:  87;


$$
NJZ001>014-300100-
NORTHERN NEW JERSEY

CITY           SKY/WX    TMP DP  RH WIND       PRES   REMARKS
SUSSEX         MOCLDY    76  60  57 SE8       30.21F
ANDOVER*         N/A     76  59  55 VRB3      30.21S
MORRISTOWN     MOCLDY    75  57  53 S9        30.23R
NEWARK         MOCLDY    70  57  63 SE7       30.23R
TETERBORO      MOCLDY    73  56  54 S7        30.21S
CALDWELL       MOCLDY    72  55  55 S3        30.23R
SOMERVILLE     MOCLDY    76  57  51 S7        30.19R
ALLAIRE*       MOCLDY    70  57  64 SE5       30.24S
TOMS RIVER*    MOCLDY   N/A N/A N/A SE5       30.23S

$$
PAZ043-044-047-054-055-060>062-066>071-300100-
EASTERN PENNSYLVANIA

CITY           SKY/WX    TMP DP  RH WIND       PRES   REMARKS
PHILADELPHIA   MOCLDY    81  66  60 S9        30.21R
6HR MIN TEMP:  81; 6HR MAX TEMP:  87;

NORTH PHILA    PTCLDY    78  59  51 SE9       30.22R
BLUE BELL      CLOUDY    81  64  57 S6        30.19R
DOYLESTOWN     PTCLDY    76  62  62 VRB7      30.20R
QUAKERTOWN*    MOCLDY    82  63  51 S3        30.20S
POTTSTOWN      PTCLDY    81  64  56 S3        30.20S
LANCASTER      PTCLDY    79  64  60 S10       30.19R
COATESVILLE    PTCLDY    75  66  73 SE6       30.22S
READING        PTCLDY    81  63  54 S6        30.17S
6HR MIN TEMP:  81; 6HR MAX TEMP:  88;

ALLENTOWN      PTCLDY    83  59  44 S6        30.18S
6HR MIN TEMP:  83; 6HR MAX TEMP:  89;

MOUNT POCONO   PTCLDY    74  56  53 S6        30.24R
6HR MIN TEMP:  74; 6HR MAX TEMP:  79;

HAZLETON       PTCLDY    77  59  53 SE5       30.25F
WILKES BARRE   PTCLDY    80  57  45 S5        30.18S

$$
DEZALL-MDZ008-012-015-019-020-300100-
DELAWARE AND EASTERN MARYLAND

CITY           SKY/WX    TMP DP  RH WIND       PRES   REMARKS
WILMINGTON     MOCLDY    73  65  75 S14       30.22R
6HR MIN TEMP:  73; 6HR MAX TEMP:  83;

DOVER          PTCLDY    71  69  92 SE5       30.19R
GEORGETOWN     CLEAR     76  63  64 S8        30.22R
6HR MIN TEMP:  76; 6HR MAX TEMP:  83;

EASTON         CLEAR     75  73  94 VRB6      30.24R
ABERDEEN       MOCLDY    81  68  65 S6        30.19
PATUXENT       MOCLDY    76  63  64 SE9       30.20R
OCEAN CITY     CLEAR     69  63  81 S5        30.23S
WALLOPS ISLAND PTCLDY    70  65  84 S6        30.23S
CAMBRIDGE      PTCLDY    77  64  65 SE3       30.20S
SALISBURY      PTCLDY    71  63  75 SE6       30.22S

$$
PAZ001-021-NYZ056-072-MDZ011-DCZ001-300100-
OTHER NEARBY LOCATIONS

CITY           SKY/WX    TMP DP  RH WIND       PRES   REMARKS
HARRISBURG     MOCLDY    81  67  62 S9        30.16S
STATE COLLEGE  PTCLDY    77  63  61 S5        30.18R
WILLIAMSPORT   PTCLDY    81  61  50 S8G18     30.14R
BINGHAMTON     MOCLDY    74  56  53 S3        30.20R
NEW YORK CITY  MOCLDY    71  56  58 VRB6      30.26R
BALTIMORE      MOCLDY    78  67  68 SE6       30.18S
WASHINGTON DC  MOCLDY    81  69  67 SE12      30.18S

$$



USA.gov is the U.S. government's official web portal to all federal, state and local government web resources and services.